Time,TemperatureF,DewpointF,PressureIn,WindDirection,WindDirectionDegrees,WindSpeedMPH,WindSpeedGustMPH,Humidity,HourlyPrecipIn,Conditions,Clouds,dailyrainin,SoftwareType,DateUTC
2013-06-01 00:14:00,60.6,58.0,29.73,NNE,20,0.0,0.0,91,0.00,,,0.06,weatherlink.com 1.10,2013-06-01 04:14:00,
2013-06-01 00:29:00,61.3,59.0,29.73,ESE,120,2.0,4.0,91,0.00,,,0.06,weatherlink.com 1.10,2013-06-01 04:29:00,
2013-06-01 00:44:00,60.7,58.0,29.73,SE,142,1.0,6.0,91,0.00,,,0.00,weatherlink.com 1.10,2013-06-01 04:44:00,
2013-06-01 00:59:00,59.8,57.0,29.73,SSE,155,2.0,4.0,91,0.00,,,0.00,weatherlink.com 1.10,2013-06-01 04:59:00,
2013-06-01 01:14:00,59.4,57.0,29.73,SE,129,0.0,4.0,91,0.00,,,0.00,weatherlink.com 1.10,2013-06-01 05:14:00,
2013-06-01 01:29:00,59.0,56.0,29.73,ESE,108,2.0,3.0,91,0.00,,,0.00,weatherlink.com 1.10,2013-06-01 05:29:00,
2013-06-01 01:44:00,58.5,56.0,29.72,SE,131,1.0,3.0,91,0.00,,,0.00,weatherlink.com 1.10,2013-06-01 05:44:00,
2013-06-01 01:59:00,58.5,56.0,29.72,SE,145,0.0,2.0,91,0.00,,,0.00,weatherlink.com 1.10,2013-06-01 05:59:00,
2013-06-01 02:14:00,58.6,56.0,29.72,SE,126,0.0,1.0,91,0.00,,,0.00,weatherlink.com 1.10,2013-06-01 06:14:00,
2013-06-01 02:29:00,58.6,56.0,29.72,ESE,119,0.0,2.0,91,0.00,,,0.00,weatherlink.com 1.10,2013-06-01 06:29:00,
2013-06-01 02:44:00,58.5,56.0,29.71,ESE,120,0.0,2.0,91,0.00,,,0.00,weatherlink.com 1.10,2013-06-01 06:44:00,
2013-06-01 02:59:00,58.6,56.0,29.70,East,97,2.0,3.0,92,0.00,,,0.00,weatherlink.com 1.10,2013-06-01 06:59:00,
2013-06-01 03:14:00,58.2,56.0,29.69,East,101,1.0,2.0,91,0.00,,,0.00,weatherlink.com 1.10,2013-06-01 07:14:00,
2013-06-01 03:30:00,57.8,56.0,29.69,East,91,2.0,3.0,92,0.00,,,0.00,weatherlink.com 1.10,2013-06-01 07:30:00,
2013-06-01 03:46:00,57.4,55.0,29.68,East,92,1.0,1.0,92,0.00,,,0.00,weatherlink.com 1.10,2013-06-01 07:46:00,
2013-06-01 04:00:00,57.3,55.0,29.68,East,90,0.0,2.0,92,0.00,,,0.00,weatherlink.com 1.10,2013-06-01 08:00:00,
2013-06-01 04:15:00,57.5,55.0,29.67,East,79,1.0,4.0,92,0.00,,,0.00,weatherlink.com 1.10,2013-06-01 08:15:00,
2013-06-01 04:30:00,57.6,55.0,29.67,ESE,110,2.0,3.0,92,0.00,,,0.00,weatherlink.com 1.10,2013-06-01 08:30:00,
2013-06-01 04:45:00,57.6,55.0,29.66,East,94,0.0,3.0,92,0.00,,,0.00,weatherlink.com 1.10,2013-06-01 08:45:00,
2013-06-01 05:00:00,57.1,55.0,29.66,East,97,0.0,2.0,92,0.00,,,0.00,weatherlink.com 1.10,2013-06-01 09:00:00,
2013-06-01 05:15:00,56.9,55.0,29.66,ESE,105,2.0,3.0,92,0.00,,,0.00,weatherlink.com 1.10,2013-06-01 09:15:00,
2013-06-01 05:30:00,57.0,55.0,29.66,East,86,3.0,4.0,92,0.00,,,0.00,weatherlink.com 1.10,2013-06-01 09:30:00,
2013-06-01 05:45:00,57.1,55.0,29.65,East,94,2.0,4.0,92,0.00,,,0.00,weatherlink.com 1.10,2013-06-01 09:45:00,
2013-06-01 06:00:00,57.3,55.0,29.66,East,101,2.0,3.0,92,0.00,,,0.00,weatherlink.com 1.10,2013-06-01 10:00:00,
2013-06-01 06:15:00,57.5,55.0,29.66,East,97,1.0,3.0,92,0.00,,,0.00,weatherlink.com 1.10,2013-06-01 10:15:00,
2013-06-01 06:30:00,57.5,55.0,29.66,ESE,110,1.0,4.0,92,0.00,,,0.00,weatherlink.com 1.10,2013-06-01 10:30:00,
2013-06-01 06:45:00,57.5,55.0,29.66,East,96,3.0,5.0,92,0.00,,,0.00,weatherlink.com 1.10,2013-06-01 10:45:00,
2013-06-01 07:00:00,57.4,55.0,29.66,East,84,4.0,6.0,92,0.00,,,0.00,weatherlink.com 1.10,2013-06-01 11:00:00,
2013-06-01 07:15:00,57.2,55.0,29.65,ESE,103,3.0,5.0,92,0.00,,,0.00,weatherlink.com 1.10,2013-06-01 11:15:00,
2013-06-01 07:30:00,57.4,55.0,29.64,East,101,5.0,6.0,92,0.00,,,0.00,weatherlink.com 1.10,2013-06-01 11:30:00,
2013-06-01 07:45:00,57.7,55.0,29.64,East,91,4.0,7.0,92,0.00,,,0.00,weatherlink.com 1.10,2013-06-01 11:45:00,
2013-06-01 08:00:00,58.1,56.0,29.65,East,99,4.0,6.0,92,0.00,,,0.00,weatherlink.com 1.10,2013-06-01 12:00:00,
2013-06-01 08:15:00,58.5,56.0,29.64,ESE,106,2.0,4.0,92,0.01,,,0.01,weatherlink.com 1.10,2013-06-01 12:15:00,
2013-06-01 08:30:00,58.9,57.0,29.66,SE,125,4.0,6.0,92,0.04,,,0.04,weatherlink.com 1.10,2013-06-01 12:30:00,
2013-06-01 08:45:00,59.9,58.0,29.64,SSW,208,2.0,4.0,93,0.07,,,0.07,weatherlink.com 1.10,2013-06-01 12:45:00,
2013-06-01 09:00:00,61.0,59.0,29.64,WSW,246,1.0,4.0,93,0.10,,,0.10,weatherlink.com 1.10,2013-06-01 13:00:00,
2013-06-01 09:15:00,60.9,59.0,29.64,SE,141,1.0,2.0,92,0.11,,,0.12,weatherlink.com 1.10,2013-06-01 13:15:00,
2013-06-01 09:30:00,60.4,58.0,29.66,SSW,197,2.0,5.0,92,0.09,,,0.13,weatherlink.com 1.10,2013-06-01 13:30:00,
2013-06-01 09:45:00,60.7,58.0,29.65,SSW,210,2.0,3.0,92,0.06,,,0.13,weatherlink.com 1.10,2013-06-01 13:45:00,
2013-06-01 10:00:00,62.6,60.0,29.63,WNW,297,1.0,4.0,92,0.04,,,0.15,weatherlink.com 1.10,2013-06-01 14:00:00,
2013-06-01 10:15:00,64.7,62.0,29.62,SE,125,3.0,5.0,92,0.03,,,0.15,weatherlink.com 1.10,2013-06-01 14:15:00,
2013-06-01 10:30:00,66.3,64.0,29.61,SSE,150,2.0,7.0,91,0.03,,,0.16,weatherlink.com 1.10,2013-06-01 14:30:00,
2013-06-01 10:45:00,67.1,64.0,29.62,SE,139,4.0,11.0,90,0.03,,,0.16,weatherlink.com 1.10,2013-06-01 14:45:00,
2013-06-01 11:00:00,67.1,65.0,29.63,SSW,198,5.0,10.0,91,0.01,,,0.16,weatherlink.com 1.10,2013-06-01 15:00:00,
2013-06-01 11:15:00,66.0,63.0,29.64,West,267,3.0,8.0,91,0.01,,,0.16,weatherlink.com 1.10,2013-06-01 15:15:00,
2013-06-01 11:30:00,66.6,64.0,29.64,WNW,302,4.0,5.0,90,0.00,,,0.16,weatherlink.com 1.10,2013-06-01 15:30:00,
2013-06-01 11:45:00,68.2,65.0,29.63,ESE,123,1.0,5.0,89,0.00,,,0.16,weatherlink.com 1.10,2013-06-01 15:45:00,
2013-06-01 12:00:00,68.8,65.0,29.64,SSE,148,3.0,6.0,88,0.00,,,0.16,weatherlink.com 1.10,2013-06-01 16:00:00,
2013-06-01 12:15:00,68.6,65.0,29.64,ESE,110,2.0,6.0,88,0.00,,,0.16,weatherlink.com 1.10,2013-06-01 16:15:00,
2013-06-01 12:30:00,68.3,65.0,29.63,NE,36,4.0,5.0,88,0.00,,,0.16,weatherlink.com 1.10,2013-06-01 16:30:00,
2013-06-01 12:45:00,68.1,65.0,29.64,ESE,105,3.0,3.0,89,0.00,,,0.16,weatherlink.com 1.10,2013-06-01 16:45:00,
2013-06-01 13:00:00,67.8,65.0,29.64,ENE,58,3.0,3.0,89,0.00,,,0.16,weatherlink.com 1.10,2013-06-01 17:00:00,
2013-06-01 13:15:00,67.8,65.0,29.65,South,183,4.0,9.0,89,0.00,,,0.16,weatherlink.com 1.10,2013-06-01 17:15:00,
2013-06-01 13:30:00,66.7,63.0,29.64,West,277,3.0,6.0,89,0.00,,,0.16,weatherlink.com 1.10,2013-06-01 17:30:00,
2013-06-01 13:45:00,68.3,65.0,29.65,WSW,250,3.0,6.0,88,0.00,,,0.16,weatherlink.com 1.10,2013-06-01 17:45:00,
2013-06-01 14:00:00,68.7,64.0,29.64,WSW,249,6.0,7.0,85,0.00,,,0.16,weatherlink.com 1.10,2013-06-01 18:00:00,
2013-06-01 14:16:00,69.5,65.0,29.64,SSW,193,5.0,10.0,84,0.00,,,0.16,weatherlink.com 1.10,2013-06-01 18:16:00,
2013-06-01 14:31:00,70.1,65.0,29.64,WNW,293,3.0,10.0,83,0.00,,,0.16,weatherlink.com 1.10,2013-06-01 18:31:00,
2013-06-01 14:46:00,70.3,65.0,29.64,West,267,8.0,13.0,82,0.00,,,0.16,weatherlink.com 1.10,2013-06-01 18:46:00,
2013-06-01 15:01:00,71.6,65.0,29.63,West,271,8.0,10.0,80,0.00,,,0.16,weatherlink.com 1.10,2013-06-01 19:01:00,
2013-06-01 15:16:00,71.9,65.0,29.63,WNW,300,3.0,9.0,78,0.00,,,0.16,weatherlink.com 1.10,2013-06-01 19:16:00,
2013-06-01 15:31:00,72.4,64.0,29.62,West,259,6.0,9.0,76,0.00,,,0.16,weatherlink.com 1.10,2013-06-01 19:31:00,
2013-06-01 15:46:00,72.8,64.0,29.63,NW,309,3.0,10.0,74,0.00,,,0.16,weatherlink.com 1.10,2013-06-01 19:46:00,
2013-06-01 16:01:00,72.8,64.0,29.63,WNW,290,4.0,9.0,75,0.00,,,0.16,weatherlink.com 1.10,2013-06-01 20:01:00,
2013-06-01 16:16:00,73.0,65.0,29.62,WNW,292,3.0,11.0,75,0.00,,,0.16,weatherlink.com 1.10,2013-06-01 20:16:00,
2013-06-01 16:31:00,73.0,65.0,29.62,SW,218,2.0,9.0,75,0.00,,,0.16,weatherlink.com 1.10,2013-06-01 20:31:00,
2013-06-01 16:46:00,72.7,64.0,29.62,SE,145,3.0,8.0,75,0.00,,,0.16,weatherlink.com 1.10,2013-06-01 20:46:00,
2013-06-01 17:01:00,72.5,65.0,29.62,WSW,248,10.0,11.0,76,0.00,,,0.16,weatherlink.com 1.10,2013-06-01 21:01:00,
2013-06-01 17:16:00,71.9,65.0,29.63,West,273,4.0,9.0,78,0.00,,,0.16,weatherlink.com 1.10,2013-06-01 21:16:00,
2013-06-01 17:31:00,71.9,65.0,29.63,WSW,245,4.0,10.0,78,0.00,,,0.16,weatherlink.com 1.10,2013-06-01 21:31:00,
2013-06-01 17:46:00,72.0,65.0,29.62,WNW,291,3.0,10.0,78,0.00,,,0.16,weatherlink.com 1.10,2013-06-01 21:46:00,
2013-06-01 18:01:00,71.8,65.0,29.63,WNW,291,2.0,8.0,79,0.00,,,0.16,weatherlink.com 1.10,2013-06-01 22:01:00,
2013-06-01 18:16:00,71.8,65.0,29.62,NW,326,3.0,6.0,79,0.00,,,0.16,weatherlink.com 1.10,2013-06-01 22:16:00,
2013-06-01 18:31:00,70.9,64.0,29.63,WSW,250,3.0,5.0,78,0.00,,,0.16,weatherlink.com 1.10,2013-06-01 22:31:00,
2013-06-01 18:46:00,69.5,63.0,29.63,WSW,251,1.0,6.0,80,0.00,,,0.16,weatherlink.com 1.10,2013-06-01 22:46:00,
2013-06-01 19:01:00,67.7,62.0,29.64,SW,219,2.0,5.0,83,0.00,,,0.16,weatherlink.com 1.10,2013-06-01 23:01:00,
2013-06-01 19:16:00,65.9,61.0,29.65,SW,217,1.0,6.0,85,0.00,,,0.16,weatherlink.com 1.10,2013-06-01 23:16:00,
2013-06-01 19:31:00,63.7,60.0,29.66,WNW,302,5.0,11.0,88,0.00,,,0.16,weatherlink.com 1.10,2013-06-01 23:31:00,
2013-06-01 19:46:00,62.9,60.0,29.66,NW,307,2.0,11.0,90,0.00,,,0.16,weatherlink.com 1.10,2013-06-01 23:46:00,
2013-06-01 20:01:00,62.7,60.0,29.66,SW,219,4.0,8.0,90,0.00,,,0.16,weatherlink.com 1.10,2013-06-02 00:01:00,
2013-06-01 20:16:00,62.8,60.0,29.64,WNW,291,6.0,8.0,89,0.00,,,0.16,weatherlink.com 1.10,2013-06-02 00:16:00,
2013-06-01 20:31:00,62.2,59.0,29.63,NNW,347,3.0,11.0,88,0.00,,,0.16,weatherlink.com 1.10,2013-06-02 00:31:00,
2013-06-01 20:46:00,61.3,58.0,29.62,North,357,2.0,5.0,89,0.00,,,0.16,weatherlink.com 1.10,2013-06-02 00:46:00,
2013-06-01 21:01:00,60.6,58.0,29.62,North,357,0.0,3.0,90,0.00,,,0.16,weatherlink.com 1.10,2013-06-02 01:01:00,
2013-06-01 21:16:00,59.9,57.0,29.62,ENE,68,0.0,1.0,91,0.00,,,0.16,weatherlink.com 1.10,2013-06-02 01:16:00,
2013-06-01 21:31:00,59.0,56.0,29.61,ESE,108,2.0,2.0,91,0.00,,,0.16,weatherlink.com 1.10,2013-06-02 01:31:00,
2013-06-01 21:46:00,58.3,56.0,29.62,SE,135,0.0,1.0,92,0.00,,,0.16,weatherlink.com 1.10,2013-06-02 01:46:00,
2013-06-01 22:01:00,58.6,56.0,29.63,SE,143,0.0,1.0,92,0.00,,,0.16,weatherlink.com 1.10,2013-06-02 02:01:00,
2013-06-01 22:16:00,59.1,57.0,29.64,South,191,1.0,3.0,92,0.00,,,0.16,weatherlink.com 1.10,2013-06-02 02:16:00,
2013-06-01 22:31:00,59.6,57.0,29.66,WNW,287,4.0,18.0,91,0.00,,,0.16,weatherlink.com 1.10,2013-06-02 02:31:00,
2013-06-01 22:46:00,58.2,56.0,29.67,NNW,327,1.0,11.0,91,0.05,,,0.21,weatherlink.com 1.10,2013-06-02 02:46:00,
2013-06-01 23:01:00,57.5,55.0,29.65,ESE,103,2.0,3.0,92,0.12,,,0.28,weatherlink.com 1.10,2013-06-02 03:01:00,
2013-06-01 23:16:00,57.2,55.0,29.63,ESE,107,0.0,1.0,92,0.17,,,0.33,weatherlink.com 1.10,2013-06-02 03:16:00,
2013-06-01 23:31:00,56.6,54.0,29.63,ESE,107,0.0,0.0,92,0.22,,,0.38,weatherlink.com 1.10,2013-06-02 03:31:00,
2013-06-01 23:46:00,56.2,54.0,29.63,ESE,107,0.0,1.0,92,0.18,,,0.40,weatherlink.com 1.10,2013-06-02 03:46:00,